Location: Camps Bay
(33.9517°S, 18.3844°E)
Time: 21:15:31
(UTC+00:00)

SJ 16-02 - Pass Details

Date: 18 January 2020
Orbit: 605 x 617 km, 75.0° (Epoch: 17 February)

Event Time Altitude Azimuth Distance (km) Brightness Sun altitude
Exits shadow 03:11:23 - 348° (NNW) 2,805 4.3 -8.4°
Reaches altitude 10° 03:13:27 10° 349° (N) 1,971 3.5 -8.1°
Maximum altitude 03:17:51 81° 75° (ENE) 631 1.5 -7.3°
Drops below altitude 10° 03:22:19 10° 162° (SSE) 1,992 4.8 -6.5°
Sets 03:24:34 0° 163° (SSE) 2,902 5.6 -6.1°
